Home   Weather   Witten   Past weeks

Flag for Germany Past Weather in Witten, North Rhine-Westphalia, Germany — Yesterday and Last 2 Weeks

Now
41 °F

Light rain. Fog.


Feels Like: 36 °F
Forecast: 41 / 49 °F
Wind: 8 mph from West

Location: Dortmund / Wickede

Current Time: Feb 19, 2017 at 6:00:22 pm

Latest Report: Feb 19, 2017 at 5:20 pm


Visibility: 2 mi

Pressure: 30.09 "Hg

Humidity: 87%

Dew Point: 37 °F

Location of WittenLocation

Past Weather in Witten — Graph

°F

Witten Temperature Yesterday

Maximum temperature yesterday: 45 °F (at 11:50 am)
Minimum temperature yesterday: 32 °F (at 9:20 pm)
Average temperature yesterday: 41 °F

High & Low Weather Summary for the Past Weeks

 TemperatureHumidityPressure
High61 °F (Feb 15, 2:50 pm)93% (Feb 6, 5:50 am)30.51 "Hg (Feb 6, 5:50 am)
Low27 °F (Feb 9, 7:20 am)29% (Feb 15, 2:50 pm)29.47 "Hg (Feb 4, 4:20 pm)
Average37 °F75%30.19 "Hg
* Reported Feb 4 4:20 pm — Feb 19 4:50 pm, Witten, Weather by CustomWeather, © 2017

Note: Actual official high and low records may vary slightly from our data, if they occured in-between our weather recording intervals... More about our weather records

Advertising

Witten Weather History for the Previous 24 Hours

Scroll right to see more
 ConditionsComfort  
Time TempWeatherWind HumidityBarometerVisibility
4:50 pm
Sun, Feb 19
41 °FLight rain. Fog.10 mph87%30.09 "Hg2 mi
4:20 pm41 °FLight rain. Fog.10 mph87%30.09 "Hg3 mi
3:50 pm43 °FLight rain. Fog.10 mph81%30.09 "Hg3 mi
3:20 pm43 °FLight rain. Overcast.10 mph81%30.09 "Hg4 mi
2:50 pm43 °FLight rain. Low clouds.10 mph81%30.09 "Hg4 mi
2:20 pm43 °FLight rain. Partly sunny.12 mph81%30.09 "Hg6 mi
1:50 pm43 °FLight rain. Partly sunny.12 mph81%30.09 "HgN/A
1:20 pm43 °FPartly sunny.9 mph76%30.12 "HgN/A
12:50 pm45 °FBroken clouds.12 mph66%30.12 "HgN/A
12:20 pm45 °FSunny.13 mph71%30.12 "Hg10 mi
11:50 am45 °FSunny.12 mph66%30.12 "Hg10 mi
11:20 am43 °FScattered showers. Clear.14 mph71%30.12 "HgN/A
10:50 am43 °FSunny.12 mph71%30.15 "Hg10 mi
10:20 am41 °FSunny.14 mph70%30.15 "Hg10 mi
9:50 am43 °FSunny.16 mph66%30.15 "Hg10 mi
9:20 am39 °FSunny.15 mph75%30.15 "Hg10 mi
8:50 am39 °FSunny.14 mph75%30.15 "Hg10 mi
8:20 am39 °FSunny.10 mph75%30.15 "Hg10 mi
7:50 am37 °FSunny.13 mph81%30.15 "Hg10 mi
7:20 am37 °FClear.13 mph81%30.15 "Hg10 mi
6:50 am37 °FClear.13 mph81%30.15 "Hg10 mi
6:20 am36 °FClear.13 mph81%30.15 "Hg10 mi
5:50 am37 °FClear.13 mph75%30.18 "Hg10 mi
5:20 am36 °FClear.13 mph81%30.18 "Hg10 mi
9:50 pm
Sat, Feb 18
32 °FClear.7 mph80%30.27 "Hg10 mi
9:20 pm32 °FClear.6 mph80%30.27 "Hg10 mi
8:50 pm34 °FClear.7 mph81%30.27 "Hg10 mi
8:20 pm37 °FPassing clouds.6 mph70%30.27 "HgN/A
7:50 pm37 °FPassing clouds.5 mph75%30.27 "HgN/A
7:20 pm39 °FPassing clouds.7 mph70%30.27 "HgN/A
6:50 pm41 °FPassing clouds.7 mph66%30.27 "HgN/A
6:20 pm41 °FPassing clouds.5 mph66%30.27 "HgN/A
Weather by CustomWeather, © 2017

See weather overviewHow to use our weather pages